Location: Doverdale
(52.2833°N, 2.2000°W)
Time: 10:27:15
(UTC+00:00)

Cosmos 2263 Rocket - Pass Details

Date: 29 October 2020
Orbit: 822 x 850 km, 71.0° (Epoch: 24 November)

Event Time Altitude Azimuth Distance (km) Brightness Sun altitude
Rises 20:19:11 0° 325° (NW) 3,423 6.1 -32.9°
Reaches altitude 10° 20:21:45 10° 319° (NW) 2,486 5.3 -33.3°
Enters shadow 20:26:48 40° 257° (WSW) 1,228 3.3 -34.0°
